H1 CPF 2 NER 2020 11 16 9 321 01 glonass128 H2 1106401 9128 37867 2020 11 16 0 0 0 2020 11 19 23 45 0 900 1 1 0 0 0 1 H9 10 0 59169 0.00000 0 6517205.616 22186033.215 -10797652.748 10 0 59169 900.00000 0 6756446.099 23323676.145 -7868955.092 10 0 59169 1800.00000 0 7017816.090 24076012.253 -4787700.025 10 0 59169 2700.00000 0 7246114.653 24432659.685 -1613675.355 10 0 59169 3600.00000 0 7386144.417 24396460.089 1591604.051 10 0 59169 4500.00000 0 7385264.096 23983249.868 4766082.121 10 0 59169 5400.00000 0 7195836.411 23221109.495 7848353.008 10 0 59169 6300.00000 0 6777468.949 22149123.653 10778835.843 10 0 59169 7200.00000 0 6098954.483 20815705.142 13500911.057 10 0 59169 8100.00000 0 5139830.005 19276552.988 15961997.691 10 0 59169 9000.00000 0 3891489.505 17592329.768 18114552.444 10 0 59169 9900.00000 0 2357804.031 15826154.305 19916972.681 10 0 59169 10800.00000 0 555222.542 14041012.950 21334387.603 10 0 59169 11700.00000 0 -1487651.759 12297195.728 22339323.682 10 0 59169 12600.00000 0 -3730993.695 10649862.459 22912232.544 10 0 59169 13500.00000 0 -6125160.513 9146838.525 23041871.749 10 0 59169 14400.00000 0 -8612512.767 7826730.747 22725531.203 10 0 59169 15300.00000 0 -11129578.874 6717440.977 21969100.310 10 0 59169 16200.00000 0 -13609476.320 5835138.990 20786973.524 10 0 59169 17100.00000 0 -15984491.558 5183737.722 19201794.529 10 0 59169 18000.00000 0 -18188713.315 4754893.545 17244042.064 10 0 59169 18900.00000 0 -20160611.137 4528532.625 14951463.263 10 0 59169 19800.00000 0 -21845452.354 4473882.583 12368363.273 10 0 59169 20700.00000 0 -23197456.262 4550967.409 9544762.997 10 0 59169 21600.00000 0 -24181594.600 4712503.690 6535439.693 10 0 59169 22500.00000 0 -24774961.379 4906118.706 3398867.973 10 0 59169 23400.00000 0 -24967652.720 5076796.665 196081.449 10 0 59169 24300.00000 0 -24763117.854 5169448.796 -3010522.625 10 0 59169 25200.00000 0 -24177964.746 5131497.018 -6158411.548 10 0 59169 26100.00000 0 -23241227.231 4915359.666 -9186152.798 10 0 59169 27000.00000 0 -21993123.822 4480731.435 -12034631.208 10 0 59169 27900.00000 0 -20483360.417 3796558.195 -14648222.031 10 0 59169 28800.00000 0 -18769049.026 2842620.424 -16975894.901 10 0 59169 29700.00000 0 -16912331.362 1610655.742 -18972225.445 10 0 59169 30600.00000 0 -14977808.757 104971.113 -20598293.375 10 0 59169 31500.00000 0 -13029888.206 -1657482.614 -21822448.481 10 0 59169 32400.00000 0 -11130157.555 -3647577.859 -22620929.160 10 0 59169 33300.00000 0 -9334901.150 -5824999.890 -22978321.423 10 0 59169 34200.00000 0 -7692860.843 -8139717.020 -22887849.877 10 0 59169 35100.00000 0 -6243336.120 -10533869.320 -22351495.904 10 0 59169 36000.00000 0 -5014702.124 -12943996.010 -21379941.861 10 0 59169 36900.00000 0 -4023406.188 -15303507.589 -19992343.704 10 0 59169 37800.00000 0 -3273482.737 -17545298.761 -18215937.920 10 0 59169 38700.00000 0 -2756604.217 -19604392.752 -16085491.763 10 0 59169 39600.00000 0 -2452663.067 -21420506.588 -13642608.907 10 0 59169 40500.00000 0 -2330857.284 -22940430.793 -10934905.186 10 0 59169 41400.00000 0 -2351231.134 -24120125.179 -8015071.454 10 0 59169 42300.00000 0 -2466603.828 -24926444.571 -4939842.636 10 0 59169 43200.00000 0 -2624802.986 -25338424.191 -1768893.509 10 0 59169 44100.00000 0 -2771107.533 -25348073.000 1436317.154 10 0 59169 45000.00000 0 -2850796.410 -24960643.833 4613731.621 10 0 59169 45900.00000 0 -2811695.625 -24194370.980 7701884.919 10 0 59169 46800.00000 0 -2606616.728 -23079687.735 10641080.914 10 0 59169 47700.00000 0 -2195584.782 -21657957.747 13374530.980 10 0 59169 48600.00000 0 -1547762.944 -19979773.661 15849434.602 10 0 59169 49500.00000 0 -642993.513 -18102893.952 18017982.600 10 0 59169 50400.00000 0 527108.781 -16089903.272 19838265.129 10 0 59169 51300.00000 0 1958557.130 -14005692.529 21275068.550 10 0 59169 52200.00000 0 3634912.454 -11914861.883 22300547.207 10 0 59169 53100.00000 0 5527727.319 -9879152.915 22894758.181 10 0 59169 54000.00000 0 7597497.470 -7955014.776 23046049.374 10 0 59169 54900.00000 0 9795083.892 -6191403.839 22751293.542 10 0 59169 55800.00000 0 12063548.932 -4627907.039 22015963.268 10 0 59169 56700.00000 0 14340333.114 -3293266.156 20854044.395 10 0 59169 57600.00000 0 16559684.797 -2204364.198 19287788.038 10 0 59169 58500.00000 0 18655243.855 -1365716.499 17347304.026 10 0 59169 59400.00000 0 20562673.474 -769488.465 15070001.514 10 0 59169 60300.00000 0 22222231.269 -396040.271 12499885.370 10 0 59169 61200.00000 0 23581172.347 -214976.809 9686720.042 10 0 59169 62100.00000 0 24595883.104 -186659.742 6685075.482 10 0 59169 63000.00000 0 25233654.972 -264118.627 3553272.562 10 0 59169 63900.00000 0 25474021.687 -395280.642 352248.068 10 0 59169 64800.00000 0 25309601.834 -525424.160 -2855638.405 10 0 59169 65700.00000 0 24746409.048 -599751.188 -6007831.660 10 0 59169 66600.00000 0 23803615.027 -565967.931 -9042816.744 10 0 59169 67500.00000 0 22512774.026 -376761.871 -11901337.666 10 0 59169 68400.00000 0 20916540.798 7932.212 -14527573.206 10 0 59169 69300.00000 0 19066936.018 618975.923 -16870244.846 10 0 59169 70200.00000 0 17023232.831 1476465.959 -18883633.439 10 0 59169 71100.00000 0 14849554.494 2588636.107 -20528483.328 10 0 59169 72000.00000 0 12612285.547 3951270.535 -21772775.189 10 0 59169 72900.00000 0 10377406.577 5547654.278 -22592352.075 10 0 59169 73800.00000 0 8207865.592 7349063.552 -22971386.407 10 0 59169 74700.00000 0 6161096.992 9315775.188 -22902679.261 10 0 59169 75600.00000 0 4286792.186 11398552.401 -22387786.975 10 0 59169 76500.00000 0 2625014.629 13540543.832 -21436973.738 10 0 59169 77400.00000 0 1204736.935 15679515.352 -20068992.416 10 0 59169 78300.00000 0 42859.310 17750320.438 -18310699.296 10 0 59169 79200.00000 0 -856252.173 19687505.097 -16196511.648 10 0 59169 80100.00000 0 -1500690.984 21427938.058 -13767720.037 10 0 59169 81000.00000 0 -1910405.540 22913356.357 -11071669.957 10 0 59169 81900.00000 0 -2116093.070 24092720.437 -8160829.712 10 0 59169 82800.00000 0 -2157641.262 24924281.211 -5091763.515 10 0 59169 83700.00000 0 -2082185.611 25377274.046 -1924030.296 10 0 59169 84600.00000 0 -1941866.123 25433170.436 1280970.185 10 0 59169 85500.00000 0 -1791378.944 25086436.765 4461181.504 10 0 59170 0.00000 0 -1685426.580 24344770.224 7555082.432 10 0 59170 900.00000 0 -1676174.319 23228803.170 10502864.534 10 0 59170 1800.00000 0 -1810818.464 21771290.271 13247572.762 10 0 59170 2700.00000 0 -2129369.536 20015811.631 15736189.532 10 0 59170 3600.00000 0 -2662741.000 18015047.255 17920642.060 10 0 59170 4500.00000 0 -3431224.251 15828693.347 19758715.305 10 0 59170 5400.00000 0 -4443412.956 13521106.328 21214854.522 10 0 59170 6300.00000 0 -5695622.153 11158770.742 22260843.344 10 0 59170 7200.00000 0 -7171827.214 8807694.396 22876345.364 10 0 59170 8100.00000 0 -8844126.734 6530836.812 23049299.473 10 0 59170 9000.00000 0 -10673712.179 4385675.718 22776161.455 10 0 59170 9900.00000 0 -12612306.399 2422011.053 22061986.725 10 0 59170 10800.00000 0 -14604013.877 680096.390 20920351.616 10 0 59170 11700.00000 0 -16587508.468 -810825.238 19373113.193 10 0 59170 12600.00000 0 -18498469.880 -2033520.199 17450010.338 10 0 59170 13500.00000 0 -20272169.307 -2983255.825 15188111.670 10 0 59170 14400.00000 0 -21846097.546 -3667763.370 12631118.781 10 0 59170 15300.00000 0 -23162526.117 -4106672.838 9828536.325 10 0 59170 16200.00000 0 -24170893.769 -4330442.457 6834723.403 10 0 59170 17100.00000 0 -24829917.100 -4378827.031 3707843.495 10 0 59170 18000.00000 0 -25109334.774 -4298949.309 508732.945 10 0 59170 18900.00000 0 -24991209.817 -4143056.030 -2700289.840 10 0 59170 19800.00000 0 -24470732.737 -3966054.330 -5856650.497 10 0 59170 20700.00000 0 -23556489.438 -3822934.259 -8898754.760 10 0 59170 21600.00000 0 -22270180.777 -3766188.588 -11767208.636 10 0 59170 22500.00000 0 -20645804.261 -3843341.617 -14405996.942 10 0 59170 23400.00000 0 -18728331.786 -4094694.213 -16763595.137 10 0 59170 24300.00000 0 -16571939.076 -4551383.107 -18793990.981 10 0 59170 25200.00000 0 -14237861.925 -5233838.774 -20457594.605 10 0 59170 26100.00000 0 -11791970.379 -6150708.922 -21722018.163 10 0 59170 27000.00000 0 -9302163.871 -7298294.257 -22562709.339 10 0 59170 27900.00000 0 -6835697.650 -8660521.027 -22963426.346 10 0 59170 28800.00000 0 -4456553.424 -10209451.542 -22916545.537 10 0 59170 29700.00000 0 -2222964.615 -11906310.798 -22423196.531 10 0 59170 30600.00000 0 -185199.430 -13702985.324 -21493223.267 10 0 59170 31500.00000 0 1616306.409 -15543930.295 -20144973.118 10 0 59170 32400.00000 0 3152390.923 -17368403.924 -18404919.556 10 0 59170 33300.00000 0 4406123.167 -19112934.548 -16307127.107 10 0 59170 34200.00000 0 5373239.209 -20713916.337 -13892570.405 10 0 59170 35100.00000 0 6062041.726 -22110224.593 -11208321.782 10 0 59170 36000.00000 0 6492770.643 -23245741.224 -8306624.218 10 0 59170 36900.00000 0 6696474.302 -24071685.107 -5243868.543 10 0 59170 37800.00000 0 6713431.386 -24548650.742 -2079495.312 10 0 59170 38700.00000 0 6591192.241 -24648271.064 1125157.103 10 0 59170 39600.00000 0 6382323.625 -24354436.254 4308035.778 10 0 59170 40500.00000 0 6141952.797 -23664019.047 7407565.362 10 0 59170 41400.00000 0 5925214.667 -22587077.539 10363826.685 10 0 59170 42300.00000 0 5784709.146 -21146528.115 13119699.993 10 0 59170 43200.00000 0 5768074.987 -19377302.742 15621952.046 10 0 59170 44100.00000 0 5915781.181 -17325025.835 17822247.620 10 0 59170 45000.00000 0 6259227.720 -15044265.305 19678067.387 10 0 59170 45900.00000 0 6819234.673 -12596429.422 21153516.139 10 0 59170 46800.00000 0 7604982.643 -10047395.218 22220007.145 10 0 59170 47700.00000 0 8613449.160 -7464964.949 22856810.566 10 0 59170 48600.00000 0 9829365.569 -4916253.904 23051456.039 10 0 59170 49500.00000 0 11225697.779 -2465115.643 22799981.855 10 0 59170 50400.00000 0 12764632.937 -169709.542 22107025.484 10 0 59170 51300.00000 0 14399033.384 1919690.096 20985752.734 10 0 59170 52200.00000 0 16074299.939 3762553.500 19457625.396 10 0 59170 53100.00000 0 17730569.247 5329546.573 17552009.979 10 0 59170 54000.00000 0 19305155.641 6603513.279 15305632.950 10 0 59170 54900.00000 0 20735137.006 7579947.727 12761890.825 10 0 59170 55800.00000 0 21959977.191 8266935.285 9970026.473 10 0 59170 56700.00000 0 22924074.985 8684564.205 6984185.958 10 0 59170 57600.00000 0 23579131.778 8863831.562 3862373.007 10 0 59170 58500.00000 0 23886236.708 8845088.900 665321.011 10 0 59170 59400.00000 0 23817579.367 8676093.043 -2544695.402 10 0 59170 60300.00000 0 23357715.405 8409744.863 -5705085.319 10 0 59170 61200.00000 0 22504329.146 8101612.721 -8754177.694 10 0 59170 62100.00000 0 21268458.808 7807347.104 -11632442.917 10 0 59170 63000.00000 0 19674172.895 7580098.087 -14283674.004 10 0 59170 63900.00000 0 17757710.279 7468047.345 -16656102.278 10 0 59170 64800.00000 0 15566119.521 7512161.687 -18703424.007 10 0 59170 65700.00000 0 13155454.767 7744265.395 -20385716.451 10 0 59170 66600.00000 0 10588604.635 8185514.766 -21670224.311 10 0 59170 67500.00000 0 7932846.127 8845340.626 -22532000.739 10 0 59170 68400.00000 0 5257227.081 9720904.224 -22954390.322 10 0 59170 69300.00000 0 2629887.747 10797089.548 -22929345.012 10 0 59170 70200.00000 0 115434.044 12047031.982 -22457567.702 10 0 59170 71100.00000 0 -2227527.710 13433160.252 -21548481.732 10 0 59170 72000.00000 0 -4348592.090 14908706.667 -20220028.251 10 0 59170 72900.00000 0 -6207401.273 16419620.968 -18498296.780 10 0 59170 73800.00000 0 -7775061.976 17906806.223 -16416997.589 10 0 59170 74700.00000 0 -9035075.825 19308581.836 -14016787.516 10 0 59170 75600.00000 0 -9983747.256 20563269.634 -11344463.575 10 0 59170 76500.00000 0 -10630055.030 21611794.199 -8452041.029 10 0 59170 77400.00000 0 -10994995.943 22400188.436 -5395734.758 10 0 59170 78300.00000 0 -11110431.275 22881899.829 -2234864.248 10 0 59170 79200.00000 0 -11017487.049 23019801.565 969296.255 10 0 59170 80100.00000 0 -10764577.377 22787825.344 4154700.084 10 0 59170 81000.00000 0 -10405135.421 22172148.737 7259720.417 10 0 59170 81900.00000 0 -9995148.134 21171888.587 10224330.114 10 0 59170 82800.00000 0 -9590598.487 19799272.438 12991247.193 10 0 59170 83700.00000 0 -9244922.243 18079281.472 15507025.134 10 0 59170 84600.00000 0 -9006585.272 16048779.911 17723068.477 10 0 59170 85500.00000 0 -8916882.021 13755166.769 19596555.614 10 0 59171 0.00000 0 -9008046.446 11254604.987 21091252.601 10 0 59171 900.00000 0 -9301754.200 8609899.677 22178203.880 10 0 59171 1800.00000 0 -9808077.333 5888112.079 22836287.320 10 0 59171 2700.00000 0 -10524937.501 3158005.269 23052624.092 10 0 59171 3600.00000 0 -11438079.441 487425.280 22822835.377 10 0 59171 4500.00000 0 -12521568.769 -2059275.935 22151140.614 10 0 59171 5400.00000 0 -13738794.811 -4423670.978 21050294.503 10 0 59171 6300.00000 0 -15043939.112 -6555441.530 19541362.455 10 0 59171 7200.00000 0 -16383850.703 -8414226.968 17653336.974 10 0 59171 8100.00000 0 -17700251.924 -9971060.489 15422600.244 10 0 59171 9000.00000 0 -18932184.325 -11209332.572 12892241.117 10 0 59171 9900.00000 0 -20018593.192 -12125240.697 10111237.719 10 0 59171 10800.00000 0 -20900942.587 -12727705.548 7133519.825 10 0 59171 11700.00000 0 -21525750.472 -13037756.118 4016927.970 10 0 59171 12600.00000 0 -21846935.851 -13087408.679 822089.049 10 0 59171 13500.00000 0 -21827877.045 -12918086.382 -2388769.653 10 0 59171 14400.00000 0 -21443091.813 -12578646.233 -5553044.184 10 0 59171 15300.00000 0 -20679465.740 -12123097.483 -8608990.121 10 0 59171 16200.00000 0 -19536974.470 -11608109.241 -11496945.464 10 0 59171 17100.00000 0 -18028866.954 -11090414.590 -14160514.403 10 0 59171 18000.00000 0 -16181300.273 -10624223.254 -16547686.790 10 0 59171 18900.00000 0 -14032440.240 -10258754.609 -18611869.654 10 0 59171 19800.00000 0 -11631065.117 -10035997.626 -20312809.110 10 0 59171 20700.00000 0 -9034731.297 -9988794.321 -21617383.553 10 0 59171 21600.00000 0 -6307578.483 -10139329.127 -22500252.084 10 0 59171 22500.00000 0 -3517867.124 -10498088.739 -22944345.468 10 0 59171 23400.00000 0 -735352.167 -11063336.491 -22941190.411 10 0 59171 24300.00000 0 1971396.456 -11821123.000 -22491061.650 10 0 59171 25200.00000 0 4537614.369 -12745831.681 -21602959.989 10 0 59171 26100.00000 0 6904795.071 -13801234.881 -20294418.000 10 0 59171 27000.00000 0 9022872.540 -14942014.694 -18591138.596 10 0 59171 27900.00000 0 10852044.568 -16115682.971 -16526474.886 10 0 59171 28800.00000 0 12364162.700 -17264818.390 -14140762.830 10 0 59171 29700.00000 0 13543633.363 -18329525.423 -11480520.910 10 0 59171 30600.00000 0 14387795.499 -19250011.116 -8597533.387 10 0 59171 31500.00000 0 14906761.955 -19969171.033 -5547835.887 10 0 59171 32400.00000 0 15122734.398 -20435075.879 -2390623.585 10 0 59171 33300.00000 0 15068823.317 -20603254.854 812896.536 10 0 59171 34200.00000 0 14787424.952 -20438680.722 4000686.991 10 0 59171 35100.00000 0 14328225.150 -19917374.360 7111072.154 10 0 59171 36000.00000 0 13745915.068 -19027562.546 10083919.240 10 0 59171 36900.00000 0 13097715.118 -17770341.463 12861785.987 10 0 59171 37800.00000 0 12440810.910 -16159818.787 15391014.133 10 0 59171 38700.00000 0 11829808.099 -14222728.545 17622749.097 10 0 59171 39600.00000 0 11314311.824 -11997534.486 19513867.686 10 0 59171 40500.00000 0 10936731.004 -9533058.297 21027797.566 10 0 59171 41400.00000 0 10730398.356 -6886688.080 22135214.163 10 0 59171 42300.00000 0 10718084.004 -4122239.523 22814602.650 10 0 59171 43200.00000 0 10910964.570 -1307556.007 23052674.991 10 0 59171 44100.00000 0 11308091.127 1488055.453 22844634.210 10 0 59171 45000.00000 0 11896379.160 4196448.645 22194280.437 10 0 59171 45900.00000 0 12651122.507 6753216.499 21113955.777 10 0 59171 46800.00000 0 13537011.716 9100118.244 19624327.607 10 0 59171 47700.00000 0 14509616.423 11187255.779 17754012.630 10 0 59171 48600.00000 0 15517271.864 12974909.377 15539046.825 10 0 59171 49500.00000 0 16503292.372 14434956.234 13022209.341 10 0 59171 50400.00000 0 17408420.326 15551811.965 10252211.395 10 0 59171 51300.00000 0 18173408.338 16322854.681 7282764.192 10 0 59171 52200.00000 0 18741625.872 16758312.719 4171542.683 10 0 59171 53100.00000 0 19061579.481 16880619.537 979064.794 10 0 59171 54000.00000 0 19089238.633 16723262.127 -2232492.041 10 0 59171 54900.00000 0 18790066.627 16329171.117 -5400513.304 10 0 59171 55800.00000 0 18140668.113 15748720.727 -8463183.568 10 0 59171 56700.00000 0 17129980.865 15037423.968 -11360710.641 10 0 59171 57600.00000 0 15759958.827 14253421.952 -14036511.861 10 0 59171 58500.00000 0 14045715.388 13454875.385 -16438337.317 10 0 59171 59400.00000 0 12015119.184 12697370.646 -18519306.225 10 0 59171 60300.00000 0 9707858.367 12031452.268 -20238834.734 10 0 59171 61200.00000 0 7174012.342 11500387.972 -21563435.857 10 0 59171 62100.00000 0 4472191.100 11138262.101 -22467375.343 10 0 59171 63000.00000 0 1667320.630 10968478.812 -22933170.597 10 0 59171 63900.00000 0 -1171831.991 11002738.377 -22951923.266 10 0 59171 64800.00000 0 -3975289.699 11240529.323 -22523479.807 10 0 59171 65700.00000 0 -6674542.342 11669156.797 -21656417.997 10 0 59171 66600.00000 0 -9205157.418 12264304.490 -20367860.951 10 0 59171 67500.00000 0 -11509216.250 12991104.721 -18683123.674 10 0 59171 68400.00000 0 -13537474.965 13805669.759 -16635200.432 10 0 59171 69300.00000 0 -15251161.673 14657018.158 -14264104.300 10 0 59171 70200.00000 0 -16623337.050 15489313.440 -11616072.971 10 0 59171 71100.00000 0 -17639764.098 16244319.716 -8742657.279 10 0 59171 72000.00000 0 -18299253.550 16863970.111 -5699711.071 10 0 59171 72900.00000 0 -18613473.482 17292939.624 -2546302.658 10 0 59171 73800.00000 0 -18606233.948 17481114.312 656430.786 10 0 59171 74700.00000 0 -18312279.142 17385853.527 3846463.471 10 0 59171 75600.00000 0 -17775639.813 16973950.930 6962073.419 10 0 59171 76500.00000 0 -17047616.464 16223212.868 9943024.597 10 0 59171 77400.00000 0 -16184478.732 15123588.805 12731716.771 10 0 59171 78300.00000 0 -15244977.495 13677807.117 15274282.144 10 0 59171 79200.00000 0 -14287773.531 11901489.891 17521609.085 10 0 59171 80100.00000 0 -13368889.437 9822741.714 19430274.700 10 0 59171 81000.00000 0 -12539290.269 7481228.740 20963369.908 10 0 59171 81900.00000 0 -11842692.742 4926784.855 22091202.569 10 0 59171 82800.00000 0 -11313693.428 2217600.933 22791866.247 10 0 59171 83700.00000 0 -10976293.333 -581930.125 23051664.463 10 0 59171 84600.00000 0 -10842880.146 -3403625.926 22865382.494 10 0 59171 85500.00000 0 -10913710.966 -6178087.313 22236401.182 10 0 59172 0.00000 0 -11176917.934 -8837327.240 21176649.686 10 0 59172 900.00000 0 -11609038.191 -11317348.932 19706396.468 10 0 59172 1800.00000 0 -12176047.099 -13560567.971 17853881.237 10 0 59172 2700.00000 0 -12834854.463 -15517977.991 15654792.104 10 0 59172 3600.00000 0 -13535201.774 -17150971.050 13151596.479 10 0 59172 4500.00000 0 -14221883.010 -18432735.288 10392736.292 10 0 59172 5400.00000 0 -14837196.241 -19349171.031 7431701.511 10 0 59172 6300.00000 0 -15323523.060 -19899285.538 4325998.613 10 0 59172 7200.00000 0 -15625926.451 -20095048.426 1136033.493 10 0 59172 8100.00000 0 -15694656.026 -19960712.673 -2076069.449 10 0 59172 9000.00000 0 -15487452.693 -19531628.989 -5247688.393 10 0 59172 9900.00000 0 -14971552.748 -18852603.240 -8316940.195 10 0 59172 10800.00000 0 -14125303.864 -17975866.695 -11223905.737 10 0 59172 11700.00000 0 -12939321.814 -16958745.746 -13911818.679 10 0 59172 12600.00000 0 -11417136.557 -15861131.156 -16328192.325 10 0 59172 13500.00000 0 -9575298.304 -14742855.578 -18425860.777 10 0 59172 14400.00000 0 -7442937.559 -13661092.108 -20163912.505 10 0 59172 15300.00000 0 -5060796.826 -12667885.611 -21508496.919 10 0 59172 16200.00000 0 -2479774.381 -11807922.460 -22433487.603 10 0 59172 17100.00000 0 240958.609 -11116633.740 -22920989.156 10 0 59172 18000.00000 0 3036188.126 -10618712.192 -22961678.085 10 0 59172 18900.00000 0 5837140.538 -10327104.998 -22554971.885 10 0 59172 19800.00000 0 8574114.700 -10242523.791 -21709024.092 10 0 59172 20700.00000 0 11179152.559 -10353490.968 -20440546.671 10 0 59172 21600.00000 0 13588636.923 -10636918.375 -18774464.620 10 0 59172 22500.00000 0 15745708.589 -11059191.824 -16743410.900 10 0 59172 23400.00000 0 17602403.045 -11577713.601 -14387072.912 10 0 59172 24300.00000 0 19121419.276 -12142835.969 -11751404.457 10 0 59172 25200.00000 0 20277449.000 -12700102.530 -8887719.583 10 0 59172 26100.00000 0 21058013.272 -13192701.762 -5851686.800 10 0 59172 27000.00000 0 21463774.212 -13564028.586 -2702243.868 10 0 59172 27900.00000 0 21508311.592 -13760245.836 499545.529 10 0 59172 28800.00000 0 21217376.129 -13732737.939 3691670.877 10 0 59172 29700.00000 0 20627652.999 -13440354.141 6812367.184 10 0 59172 30600.00000 0 19785089.027 -12851347.709 9801298.153 10 0 59172 31500.00000 0 18742854.659 -11944930.526 12600708.121 10 0 59172 32400.00000 0 17559026.473 -10712378.542 15156521.805 10 0 59172 33300.00000 0 16294086.942 -9157642.167 17419372.052 10 0 59172 34200.00000 0 15008345.252 -7297436.010 19345537.291 10 0 59172 35100.00000 0 13759385.746 -5160803.579 20897772.231 10 0 59172 36000.00000 0 12599649.127 -2788173.752 22046017.259 10 0 59172 36900.00000 0 11574245.987 -229946.474 22767974.019 10 0 59172 37800.00000 0 10719092.620 2455335.944 23049536.905 10 0 59172 38700.00000 0 10059446.054 5203158.769 22885072.448 10 0 59172 39600.00000 0 9608899.080 7945458.790 22277540.900 10 0 59172 40500.00000 0 9368877.490 10613204.513 21238456.849 10 0 59172 41400.00000 0 9328661.303 13139028.046 19787688.210 10 0 59172 42300.00000 0 9465930.406 15459801.196 17953095.642 10 0 59172 43200.00000 0 9747813.329 17519050.030 15770017.286 10 0 59172 44100.00000 0 10132396.837 19269107.867 13280606.527 10 0 59172 45000.00000 0 10570634.447 20672916.599 10533033.598 10 0 59172 45900.00000 0 11008574.645 21705400.282 7580564.695 10 0 59172 46800.00000 0 11389815.433 22354352.109 4480535.175 10 0 59172 47700.00000 0 11658081.360 22620795.988 1293236.188 10 0 59172 48600.00000 0 11759813.152 22518806.002 -1919263.631 10 0 59172 49500.00000 0 11646658.681 22074790.100 -5094337.833 10 0 59172 50400.00000 0 11277757.542 21326267.381 -8170038.111 10 0 59172 51300.00000 0 10621719.852 20320190.414 -11086320.767 10 0 59172 52200.00000 0 9658212.652 19110883.828 -13786237.871 10 0 59172 53100.00000 0 8379084.143 17757687.293 -16217067.745 10 0 59172 54000.00000 0 6788975.808 16322403.919 -18331360.874 10 0 59172 54900.00000 0 4905394.701 14866663.484 -20087879.258 10 0 59172 55800.00000 0 2758241.576 13449313.545 -21452409.630 10 0 59172 56700.00000 0 388814.038 12123949.922 -22398434.071 10 0 59172 57600.00000 0 -2151673.575 10936691.665 -22907644.758 10 0 59172 58500.00000 0 -4803991.122 9924294.684 -22970293.132 10 0 59172 59400.00000 0 -7503134.239 9112683.170 -22585367.456 10 0 59172 60300.00000 0 -10180812.186 8515959.651 -21760596.349 10 0 59172 61200.00000 0 -12768077.381 8135933.733 -20512279.535 10 0 59172 62100.00000 0 -15197986.602 7962187.286 -18864950.489 10 0 59172 63000.00000 0 -17408182.955 7972670.859 -16850878.966 10 0 59172 63900.00000 0 -19343291.402 8134803.770 -14509424.468 10 0 59172 64800.00000 0 -20957029.091 8407028.997 -11886254.474 10 0 59172 65700.00000 0 -22213944.029 8740755.262 -9032443.663 10 0 59172 66600.00000 0 -23090711.488 9082602.624 -6003472.594 10 0 59172 67500.00000 0 -23576936.347 9376855.689 -2858145.860 10 0 59172 68400.00000 0 -23675430.328 9568020.280 342548.912 10 0 59172 69300.00000 0 -23401954.896 9603375.637 3536618.980 10 0 59172 70200.00000 0 -22784442.827 9435414.877 6662258.767 10 0 59172 71100.00000 0 -21861732.767 9024071.584 9659034.065 10 0 59172 72000.00000 0 -20681870.981 8338639.656 12469036.048 10 0 59172 72900.00000 0 -19300051.940 7359306.519 15037984.087 10 0 59172 73800.00000 0 -17776283.774 6078235.923 17316257.489 10 0 59172 74700.00000 0 -16172875.490 4500155.156 19259837.773 10 0 59172 75600.00000 0 -14551849.718 2642421.727 20831144.939 10 0 59172 76500.00000 0 -12972387.352 534565.712 21999753.103 10 0 59172 77400.00000 0 -11488409.065 -1782674.733 22742972.855 10 0 59172 78300.00000 0 -10146392.836 -4258786.808 23046289.987 10 0 59172 79200.00000 0 -8983517.143 -6835328.524 22903652.456 10 0 59172 80100.00000 0 -8026206.310 -9448112.361 22317599.764 10 0 59172 81000.00000 0 -7289138.309 -12029639.391 21299231.472 10 0 59172 81900.00000 0 -6774756.633 -14511685.522 19868014.056 10 0 59172 82800.00000 0 -6473307.412 -16827934.526 18051428.041 10 0 59172 83700.00000 0 -6363401.384 -18916549.979 15884460.140 10 0 59172 84600.00000 0 -6413078.533 -20722579.867 13408947.988 10 0 59172 85500.00000 0 -6581332.129 -22200093.479 10672788.117 99